Location: Kerguer�zec
(48.4509°N, 4.7600°W)
Time: 01:55:17
(UTC+00:00)

SL-16 R/B - Pass Details

Date: 09 April 2020
Orbit: 842 x 846 km, 71.0° (Epoch: 06 June)

Event Time Altitude Azimuth Distance (km) Brightness Sun altitude
Rises 23:11:34 0° 332° (NNW) 3,415 6.5 -31.5°
Reaches altitude 10° 23:14:02 10° 335° (NNW) 2,476 5.5 -31.7°
Enters shadow 23:18:37 57° 358° (N) 994 2.7 -31.9°
